Regional Weather Roundup
Issued by NWS New Orleans/Baton Rouge, LA

Home | Current Version | Previous Version | Text Only | Print | Product List | Glossary Off
Versions: 1 2 3 4 5 6 7 8 9 10 11 12 13 14 15 16 17 18 19 20 21 22 23 24 25 26 27 28 29 30 31 32 33 34 35 36 37 38 39 40 41 42 43 44 45 46 47 48 49 50

836
ASUS44 KLIX 262305
RWRLIX
NEW ORLEANS REGIONAL WEATHER ROUNDUP
NATIONAL WEATHER SERVICE NEW ORLEANS LA
500 PM CST FRI DEC 26 2014

NOTE: "FAIR" INDICATES FEW OR NO CLOUDS BELOW 12,000 FEET WITH NO
      SIGNIFICANT WEATHER AND/OR OBSTRUCTIONS TO VISIBILITY.
      SKY/WX - SKY CONDITION AND SIGNIFICANT WEATHER.
      TMP - AIR TEMPERATURE.     DP    - DEWPOINT TEMPERATURE.
      RH  - RELATIVE HUMIDITY.   PRES  - PRESSURE.
      HI  - HEAT INDEX.          WCI   - WIND CHILL INDEX.

*  THESE STATIONS ARE NOT NWS OR FAA STATIONS AND ARE NOT UNDER
   NWS QUALITY CONTROL.

LAZ038-040-048-061>063-065>067-069-270000-
SOUTHEAST LOUISIANA

CITY           SKY/WX    TMP DP  RH WIND       PRES   REMARKS
N.O. AUDUBON     N/A     64  56  76 MISG        N/A
N.O. INTL ARPT CLOUDY    64  54  69 E10G18    30.13S
N.O. LAKEFRONT CLOUDY    63  53  70 E14       30.15S
N.O. DOWNTOWN* CLOUDY    63  52  67 E10G16    30.15R
SLIDELL        CLOUDY    64  52  64 SE9       30.16R
BATON ROUGE    PTCLDY    62  53  72 E12       30.12S
BOOTHVILLE     CLOUDY    63  57  81 E10       30.16R
BELLE CHASSE   CLOUDY    64  54  69 E13       30.14R
BOGALUSA*        N/A     67  53  61 SE3       30.17R
GALLIANO*      CLOUDY    65  57  73 MISG      30.12S
NEW ROADS*     CLOUDY    58  56  94 E7        30.11S
GONZALES*      CLOUDY    63  56  78 E5        30.12R
HAMMOND*       NOT AVBL
HOUMA*         CLOUDY    64  55  72 E14       30.11S
PORT FOURCHON* CLOUDY    66  61  82 E14G20    30.15S

$$

MSZ070-080>082-270000-
SOUTHERN MISSISSIPPI

CITY           SKY/WX    TMP DP  RH WIND       PRES   REMARKS
MCCOMB         CLOUDY    60  52  74 NE5       30.15R
GULFPORT       CLOUDY    62  53  72 SE13      30.18R
BILOXI         CLOUDY    64  54  68 SE8       30.19R
PASCAGOULA     CLEAR     62  53  72 E6        30.19R

$$

COASTAL OBSERVATIONS
LAKE AND NEARSHORE STATIONS

STATION/POSITION TIME  TEMP    WIND        PRES    WAVE
                       AIR SEA DIR/SP/G            HT/PER
                 (UTC) (F)     (DEG/KT/KT) (MB)    (FT/S)
PASCAGOULA       2300   63      90/ 13/ 20 1021.8
WAVELAND YACHT   2300   61     120/ 17/ 19 1020.9
GRAND ISLE       2300   64 62  100/  8/ 16 1020.6
SOUTHWEST PASS   2300   66                 1020.4
NEW CANAL        2300   62 58   90/  5/ 11 1021.0
SHELL BEACH      2300   61 60   90/ 15/ 17 1020.7

OFFSHORE STATIONS

STATION/POSITION TIME  TEMP    WIND        PRES    WAVE
                       AIR SEA DIR/SP/G            HT/PER
                 (UTC) (F)     (DEG/KT/KT) (MB)    (FT/S)
64 S DAUPHIN ISL 2300   68 74  100/ 14/ 17 1021.1    2/ 4

$$




USA.gov is the U.S. government's official web portal to all federal, state and local government web resources and services.